This demonstration page uses our WeatherBlox Daily Observations layout. Learn more.

Left ArrowRight Arrow

Hourly Observations for February 4, 2017

Temp ( °F °C ) Dew Point ( °F °C ) Humidity (%) Winds ( mph kmh ) Pressure ( in mb ) Visibility ( mi km ) Precip ( " mm )
12:53 am 00:53 Clear 12 -11.1 8 -13.3 84 84 N N/A 30.54 1034 10 16 N/A
1:53 am 01:53 Clear 10 -12.2 7 -13.9 87 87 N N/A 30.53 1034 10 16 N/A
2:53 am 02:53 Clear 9 -12.8 7 -13.9 92 92 N N/A 30.54 1034 9 14 N/A
3:53 am 03:53 Clear 9 -12.8 7 -13.9 92 92 N N/A 30.54 1034 10 16 N/A
4:53 am 04:53 Clear 9 -12.8 6 -14.4 88 88 N N/A 30.54 1034 10 16 N/A
5:53 am 05:53 Clear 9 -12.8 6 -14.4 88 88 N N/A 30.55 1034 10 16 N/A
6:53 am 06:53 Clear 7 -13.9 5 -15 91 91 N N/A 30.56 1035 10 16 N/A
7:53 am 07:53 Sunny 7 -13.9 5 -15 91 91 N N/A 30.56 1035 9 14 N/A
8:53 am 08:53 Sunny 16 -8.9 14 -10 92 92 N N/A 30.56 1035 8 13 N/A
9:53 am 09:53 Sunny 24 -4.4 17 -8.3 75 75 N N/A 30.55 1035 10 16 N/A
10:53 am 10:53 Sunny 29 -1.7 15 -9.4 56 56 N N/A 30.55 1035 10 16 N/A
11:53 am 11:53 Sunny 32 undefined 10 -12.2 40 40 VRB 6 9 30.51 1033 10 16 N/A
12:53 pm 12:53 Sunny 32 undefined 7 -13.9 35 35 VRB 3 6 30.46 1031 10 16 N/A
1:53 pm 13:53 Sunny 33 0.6 8 -13.3 35 35 VRB 3 6 30.41 1030 10 16 N/A
2:53 pm 14:53 Sunny 35 1.7 5 -15 28 28 VRB 3 6 30.36 1028 10 16 N/A
3:53 pm 15:53 Sunny 37 2.8 4 -15.6 25 25 VRB 3 6 30.32 1027 10 16 N/A
4:53 pm 16:53 Sunny 35 1.7 5 -15 28 28 VRB 6 9 30.26 1025 10 16 N/A
5:53 pm 17:53 Sunny 35 1.7 7 -13.9 31 31 SSE 8 13 30.24 1024 10 16 N/A
6:53 pm 18:53 Clear 33 0.6 8 -13.3 35 35 VRB 3 6 30.22 1023 10 16 N/A
7:53 pm 19:53 Clear 25 -3.9 10 -12.2 53 53 N N/A 30.20 1023 10 16 N/A
8:53 pm 20:53 Mostly Cloudy 27 -2.8 12 -11.1 53 53 N N/A 30.17 1022 10 16 N/A
9:53 pm 21:53 Cloudy 33 0.6 11 -11.7 40 40 N N/A 30.15 1021 10 16 N/A
10:53 pm 22:53 Cloudy 33 0.6 11 -11.7 40 40 SE 3 6 30.11 1020 10 16 N/A
11:53 pm 23:53 Cloudy 34 1.1 13 -10.6 42 42 N N/A 30.09 1019 10 16 N/A

Powered by AerisWeather